• In Belarus
  • List of Countries
  • For 7 days
  • Water Temperature
  • Satellite Maps
  • Weather Map
  • Weather Widgets
  • user-avatar
    Login

    Hourly Weather Caprivi

    Today, 20 October, Saturday

    Time Temperature Precipitation Wind Pressure Humidity
    00:00 +30°C° 0 mm 2 mps 679 mmHg 21%
    01:00 +29°C° 0 mm 2 mps 679 mmHg 22%
    02:00 +27°C° 0 mm 2 mps 679 mmHg 25%
    03:00 +26°C° 0 mm 2 mps 679 mmHg 26%
    04:00 +26°C° 0 mm 2 mps 679 mmHg 28%
    05:00 +25°C° 0 mm 2 mps 679 mmHg 29%
    06:00 +27°C° 0 mm 3 mps 679 mmHg 27%
    07:00 +29°C° 0 mm 3 mps 680 mmHg 26%
    08:00 +32°C° 0 mm 4 mps 681 mmHg 25%
    09:00 +35°C° 0 mm 4 mps 681 mmHg 20%
    10:00 +38°C° 0 mm 4 mps 681 mmHg 16%
    11:00 +41°C° 0 mm 4 mps 681 mmHg 12%
    12:00 +42°C° 0 mm 4 mps 681 mmHg 11%
    13:00 +43°C° 0 mm 4 mps 680 mmHg 10%
    14:00 +42°C° 0 mm 3 mps 681 mmHg 14%
    15:00 +42°C° 0 mm 3 mps 680 mmHg 14%
    16:00 +40°C° 0 mm 3 mps 680 mmHg 14%
    17:00 +40°C° 0 mm 2 mps 679 mmHg 13%
    18:00 +38°C° 0 mm 2 mps 679 mmHg 16%
    19:00 +36°C° 0 mm 2 mps 680 mmHg 19%
    20:00 +34°C° 0 mm 2 mps 680 mmHg 21%
    21:00 +32°C° 0 mm 2 mps 680 mmHg 24%
    22:00 +32°C° 0 mm 2 mps 680 mmHg 26%
    23:00 +31°C° 0 mm 2 mps 680 mmHg 28%

    Tomorrow, 21 October, Sunday

    Time Temperature Precipitation Wind Pressure Humidity
    00:00 +30°C° 0 mm 2 mps 680 mmHg 31%
    01:00 +30°C° 0 mm 2 mps 680 mmHg 34%
    02:00 +29°C° 0 mm 2 mps 680 mmHg 36%
    03:00 +29°C° 0.2 mm 2 mps 680 mmHg 39%
    04:00 +28°C° 0.2 mm 2 mps 680 mmHg 41%
    05:00 +28°C° 0.2 mm 2 mps 681 mmHg 43%
    06:00 +29°C° 0 mm 3 mps 681 mmHg 41%
    07:00 +30°C° 0 mm 4 mps 682 mmHg 40%
    08:00 +32°C° 0 mm 5 mps 683 mmHg 38%
    09:00 +34°C° 0 mm 5 mps 683 mmHg 34%
    10:00 +35°C° 0 mm 5 mps 683 mmHg 30%
    11:00 +37°C° 0 mm 5 mps 683 mmHg 26%
    12:00 +39°C° 0 mm 5 mps 683 mmHg 23%
    13:00 +40°C° 0 mm 5 mps 682 mmHg 20%
    14:00 +41°C° 0 mm 5 mps 681 mmHg 16%
    15:00 +41°C° 0 mm 5 mps 681 mmHg 17%
    16:00 +40°C° 0 mm 5 mps 680 mmHg 18%
    17:00 +39°C° 0 mm 5 mps 680 mmHg 18%
    18:00 +36°C° 0 mm 5 mps 680 mmHg 21%
    19:00 +35°C° 0 mm 5 mps 680 mmHg 24%
    20:00 +33°C° 0 mm 5 mps 680 mmHg 27%
    21:00 +32°C° 0 mm 5 mps 681 mmHg 29%
    22:00 +30°C° 0 mm 6 mps 681 mmHg 31%
    23:00 +29°C° 0 mm 6 mps 681 mmHg 33%

    Day after tomorrow, 22 October, Monday

    Time Temperature Precipitation Wind Pressure Humidity
    00:00 +29°C° 0 mm 5 mps 682 mmHg 34%
    01:00 +28°C° 0 mm 5 mps 682 mmHg 36%
    02:00 +28°C° 0 mm 5 mps 682 mmHg 37%
    03:00 +27°C° 0 mm 5 mps 682 mmHg 39%
    04:00 +26°C° 0 mm 5 mps 682 mmHg 41%
    05:00 +26°C° 0 mm 5 mps 682 mmHg 43%
    06:00 +26°C° 0 mm 5 mps 682 mmHg 43%
    07:00 +26°C° 0 mm 6 mps 683 mmHg 42%
    08:00 +26°C° 0 mm 6 mps 684 mmHg 42%
    09:00 +27°C° 0 mm 6 mps 684 mmHg 38%
    10:00 +29°C° 0 mm 6 mps 684 mmHg 35%
    11:00 +30°C° 0 mm 5 mps 684 mmHg 31%
    12:00 +32°C° 0 mm 5 mps 683 mmHg 28%
    13:00 +33°C° 0 mm 5 mps 682 mmHg 25%
    14:00 +34°C° 0 mm 5 mps 681 mmHg 22%
    15:00 +34°C° 0 mm 5 mps 681 mmHg 22%
    16:00 +34°C° 0 mm 5 mps 681 mmHg 21%
    17:00 +34°C° 0 mm 4 mps 681 mmHg 21%
    18:00 +32°C° 0 mm 4 mps 681 mmHg 24%
    19:00 +30°C° 0 mm 4 mps 681 mmHg 27%
    20:00 +28°C° 0 mm 3 mps 682 mmHg 29%
    21:00 +28°C° 0 mm 4 mps 682 mmHg 30%
    22:00 +27°C° 0 mm 4 mps 682 mmHg 31%
    23:00 +27°C° 0 mm 5 mps 683 mmHg 32%

    23 October, Tuesday

    Time Temperature Precipitation Wind Pressure Humidity
    00:00 +26°C° 0 mm 5 mps 682 mmHg 33%
    01:00 +26°C° 0 mm 5 mps 682 mmHg 34%
    02:00 +25°C° 0 mm 4 mps 682 mmHg 35%
    03:00 +25°C° 0 mm 5 mps 682 mmHg 36%
    04:00 +23°C° 0 mm 5 mps 682 mmHg 38%
    05:00 +23°C° 0 mm 5 mps 683 mmHg 39%
    06:00 +23°C° 0 mm 5 mps 683 mmHg 37%
    07:00 +25°C° 0 mm 5 mps 684 mmHg 35%
    08:00 +24°C° 0 mm 6 mps 685 mmHg 33%
    09:00 +27°C° 0 mm 5 mps 685 mmHg 30%
    10:00 +29°C° 0 mm 5 mps 685 mmHg 26%
    11:00 +32°C° 0 mm 5 mps 685 mmHg 23%
    12:00 +33°C° 0 mm 5 mps 685 mmHg 20%
    13:00 +35°C° 0 mm 4 mps 684 mmHg 18%
    14:00 +36°C° 0 mm 4 mps 683 mmHg 15%
    15:00 +36°C° 0 mm 4 mps 683 mmHg 15%
    16:00 +36°C° 0 mm 3 mps 682 mmHg 15%
    17:00 +35°C° 0 mm 3 mps 682 mmHg 14%
    18:00 +34°C° 0 mm 3 mps 682 mmHg 16%
    19:00 +31°C° 0 mm 3 mps 683 mmHg 18%
    20:00 +29°C° 0 mm 3 mps 683 mmHg 20%
    21:00 +28°C° 0 mm 3 mps 683 mmHg 20%
    22:00 +28°C° 0 mm 4 mps 683 mmHg 21%
    23:00 +27°C° 0 mm 4 mps 683 mmHg 21%

    24 October, Wednesday

    Time Temperature Precipitation Wind Pressure Humidity
    00:00 +26°C° 0 mm 3 mps 683 mmHg 22%
    01:00 +26°C° 0 mm 3 mps 682 mmHg 24%
    02:00 +25°C° 0 mm 2 mps 682 mmHg 25%
    03:00 +24°C° 0 mm 2 mps 682 mmHg 26%
    04:00 +24°C° 0 mm 2 mps 682 mmHg 27%
    05:00 +23°C° 0 mm 2 mps 682 mmHg 28%
    06:00 +24°C° 0 mm 3 mps 683 mmHg 28%
    07:00 +25°C° 0 mm 4 mps 684 mmHg 28%
    08:00 +26°C° 0 mm 5 mps 684 mmHg 28%
    09:00 +27°C° 0 mm 4 mps 684 mmHg 26%
    10:00 +29°C° 0 mm 4 mps 684 mmHg 25%
    11:00 +30°C° 0 mm 4 mps 685 mmHg 23%
    12:00 +32°C° 0 mm 4 mps 684 mmHg 21%
    13:00 +33°C° 0 mm 4 mps 683 mmHg 19%
    14:00 +34°C° 0 mm 3 mps 683 mmHg 17%
    15:00 +34°C° 0 mm 3 mps 682 mmHg 17%
    16:00 +33°C° 0 mm 3 mps 682 mmHg 17%
    17:00 +33°C° 0 mm 3 mps 682 mmHg 17%
    18:00 +30°C° 0 mm 3 mps 682 mmHg 20%
    19:00 +29°C° 0 mm 3 mps 682 mmHg 23%
    20:00 +27°C° 0 mm 3 mps 683 mmHg 26%
    21:00 +26°C° 0 mm 3 mps 683 mmHg 28%
    22:00 +25°C° 0 mm 3 mps 683 mmHg 30%
    23:00 +24°C° 0 mm 2 mps 682 mmHg 31%

    25 October, Thursday

    Time Temperature Precipitation Wind Pressure Humidity
    00:00 +24°C° 0 mm 2 mps 682 mmHg 32%
    01:00 +23°C° 0 mm 2 mps 681 mmHg 34%
    02:00 +21°C° 0 mm 2 mps 681 mmHg 35%
    03:00 +21°C° 0 mm 2 mps 681 mmHg 35%
    04:00 +21°C° 0 mm 2 mps 681 mmHg 35%
    05:00 +20°C° 0 mm 2 mps 681 mmHg 36%
    06:00 +23°C° 0 mm 2 mps 682 mmHg 33%
    07:00 +24°C° 0 mm 3 mps 683 mmHg 30%
    08:00 +26°C° 0 mm 4 mps 683 mmHg 27%
    09:00 +28°C° 0 mm 3 mps 683 mmHg 24%
    10:00 +30°C° 0 mm 3 mps 683 mmHg 21%
    11:00 +33°C° 0 mm 3 mps 683 mmHg 18%
    12:00 +34°C° 0 mm 3 mps 683 mmHg 17%
    13:00 +34°C° 0 mm 3 mps 682 mmHg 16%
    14:00 +35°C° 0 mm 3 mps 681 mmHg 14%
    15:00 +35°C° 0 mm 3 mps 681 mmHg 15%
    16:00 +35°C° 0 mm 3 mps 681 mmHg 15%
    17:00 +34°C° 0 mm 3 mps 680 mmHg 15%
    18:00 +33°C° 0 mm 3 mps 681 mmHg 17%
    19:00 +30°C° 0 mm 2 mps 681 mmHg 19%
    20:00 +28°C° 0 mm 2 mps 681 mmHg 21%
    21:00 +27°C° 0 mm 2 mps 681 mmHg 23%
    22:00 +26°C° 0 mm 2 mps 681 mmHg 25%
    23:00 +26°C° 0 mm 2 mps 681 mmHg 26%
    Show more